Location: Philipsburg
(46.3359°N, 113.2993°W)
Time: 14:14:10
(UTC+00:00)

Envisat - Pass Details

Date: 29 January 2022
Orbit: 764 x 765 km, 98.2° (Epoch: 17 May)

Event Time Altitude Azimuth Distance (km) Brightness Sun altitude
Rises 14:06:33 0° 359° (N) 3,242 6.1 -9.4°
Reaches altitude 10° 14:09:39 10° 339° (NNW) 2,312 5.1 -8.9°
Maximum altitude 14:12:44 16° 302° (WNW) 1,898 4.4 -8.4°
Drops below altitude 10° 14:15:49 10° 264° (W) 2,304 4.9 -7.9°
Sets 14:18:54 0° 244° (WSW) 3,225 5.8 -7.4°
